HVN63 RKSI-VVNB

Flight info

Callsign HVN63
Flight time 3h 54m
Altitude 38000
Route BOPTA2A BOPTA Z51 BEDES Y711 MANGI/N0485F400 Y711 PONIK A593 LAMEN/K0952F280 A593 AKARA/K0945S0840 A593 PUD/K0900S1220 A599 NXD W131 AKDIM A470 DUBGO W134 ELNEX A599 GYA R474 NAKHA NAKHA3H
Aircraft B789/H-SDE1E2E3FGHIJ2J3J4J5M1RWXY/LB1D1

Departure

Time 2026-05-01 08:31
Airport Incheon International Airport (RKSI)

Arrival

Time 2026-05-01 12:25
Airport Noi Bai International Airport (VVNB)
Time Latitude Longitude Altitude Speed Heading
2026-05-01 08:01 37.45318 126.45228 38 ft 0 kts 254°
2026-05-01 08:18 37.45320 126.45236 38 ft 2 kts 253°
2026-05-01 08:18 37.45328 126.45276 36 ft 2 kts 256°
2026-05-01 08:19 37.45334 126.45316 35 ft 2 kts 264°
2026-05-01 08:19 37.45335 126.45337 35 ft 2 kts 279°
2026-05-01 08:19 37.45328 126.45355 35 ft 2 kts 325°
2026-05-01 08:19 37.45320 126.45360 34 ft 0 kts 339°
2026-05-01 08:20 37.45324 126.45358 33 ft 0 kts 340°
2026-05-01 08:22 37.45330 126.45355 35 ft 2 kts 340°
2026-05-01 08:22 37.45349 126.45347 36 ft 4 kts 341°
2026-05-01 08:22 37.45384 126.45333 38 ft 6 kts 343°
2026-05-01 08:22 37.45434 126.45315 38 ft 9 kts 344°
2026-05-01 08:23 37.45493 126.45280 38 ft 10 kts 324°
2026-05-01 08:23 37.45536 126.45209 38 ft 11 kts 291°
2026-05-01 08:23 37.45540 126.45118 38 ft 11 kts 259°
2026-05-01 08:23 37.45506 126.45038 38 ft 10 kts 234°
2026-05-01 08:24 37.45457 126.44952 38 ft 14 kts 234°
2026-05-01 08:24 37.45395 126.44841 38 ft 17 kts 234°
2026-05-01 08:24 37.45320 126.44709 38 ft 20 kts 234°
2026-05-01 08:24 37.45234 126.44556 38 ft 22 kts 234°
2026-05-01 08:25 37.45153 126.44414 38 ft 17 kts 234°
2026-05-01 08:25 37.45109 126.44336 38 ft 16 kts 234°
2026-05-01 08:25 37.45048 126.44226 38 ft 15 kts 235°
2026-05-01 08:25 37.44988 126.44120 38 ft 15 kts 233°
2026-05-01 08:26 37.44913 126.44091 36 ft 11 kts 162°
2026-05-01 08:26 37.44847 126.44144 38 ft 12 kts 143°
2026-05-01 08:26 37.44769 126.44214 37 ft 16 kts 144°
2026-05-01 08:26 37.44668 126.44304 38 ft 19 kts 145°
2026-05-01 08:27 37.44577 126.44386 38 ft 14 kts 144°
2026-05-01 08:27 37.44495 126.44404 38 ft 11 kts 209°
2026-05-01 08:27 37.44450 126.44344 38 ft 9 kts 233°
2026-05-01 08:27 37.44421 126.44291 38 ft 0 kts 234°
2026-05-01 08:29 37.44419 126.44287 38 ft 2 kts 234°
2026-05-01 08:29 37.44409 126.44270 38 ft 3 kts 234°
2026-05-01 08:29 37.44393 126.44242 38 ft 5 kts 234°
2026-05-01 08:29 37.44373 126.44200 36 ft 6 kts 249°
2026-05-01 08:30 37.44378 126.44157 38 ft 5 kts 291°
2026-05-01 08:30 37.44403 126.44122 38 ft 6 kts 323°
2026-05-01 08:30 37.44435 126.44091 36 ft 8 kts 323°
2026-05-01 08:30 37.44608 126.43937 38 ft 62 kts 324°
2026-05-01 08:31 37.45144 126.43462 38 ft 125 kts 325°
2026-05-01 08:31 37.45998 126.42702 144 ft 167 kts 324°
2026-05-01 08:31 37.46922 126.41878 1041 ft 161 kts 317°
2026-05-01 08:31 37.47730 126.40911 1843 ft 165 kts 307°
2026-05-01 08:32 37.48513 126.39700 2319 ft 191 kts 308°
2026-05-01 08:32 37.49415 126.38320 2819 ft 217 kts 309°
2026-05-01 08:32 37.50221 126.36690 3530 ft 229 kts 286°
2026-05-01 08:32 37.50467 126.34604 4280 ft 251 kts 275°
2026-05-01 08:33 37.50510 126.32419 5334 ft 254 kts 273°
2026-05-01 08:33 37.50530 126.30169 6351 ft 260 kts 274°
2026-05-01 08:33 37.50583 126.27877 7306 ft 264 kts 275°
2026-05-01 08:33 37.50648 126.25539 8270 ft 269 kts 276°
2026-05-01 08:34 37.50708 126.23160 9221 ft 273 kts 276°
2026-05-01 08:34 37.50485 126.20747 10095 ft 287 kts 256°
2026-05-01 08:34 37.49484 126.18440 10503 ft 321 kts 231°
2026-05-01 08:34 37.47595 126.16689 10782 ft 356 kts 208°
2026-05-01 08:35 37.45235 126.15504 10953 ft 385 kts 200°
2026-05-01 08:35 37.42501 126.15164 11512 ft 401 kts 175°
2026-05-01 08:35 37.39789 126.16036 12328 ft 408 kts 156°
2026-05-01 08:35 37.37392 126.17974 13071 ft 412 kts 136°
2026-05-01 08:36 37.35452 126.20646 13756 ft 416 kts 126°
2026-05-01 08:36 37.33725 126.23576 14423 ft 420 kts 123°
2026-05-01 08:36 37.31963 126.26539 15078 ft 426 kts 126°
2026-05-01 08:36 37.29982 126.29355 15710 ft 433 kts 131°
2026-05-01 08:37 37.27891 126.32110 16368 ft 438 kts 131°
2026-05-01 08:37 37.25856 126.34983 17011 ft 442 kts 128°
2026-05-01 08:37 37.23858 126.37946 17633 ft 447 kts 129°
2026-05-01 08:37 37.21806 126.40903 18247 ft 452 kts 130°
2026-05-01 08:38 37.19462 126.43557 18733 ft 458 kts 144°
2026-05-01 08:38 37.16691 126.45527 19233 ft 461 kts 159°
2026-05-01 08:38 37.13689 126.46990 19707 ft 465 kts 161°
2026-05-01 08:38 37.10651 126.48411 20235 ft 468 kts 161°
2026-05-01 08:39 37.07583 126.49842 20723 ft 473 kts 161°
2026-05-01 08:39 37.04490 126.51315 21186 ft 477 kts 162°
2026-05-01 08:39 37.01339 126.52464 21569 ft 479 kts 168°
2026-05-01 08:39 36.98104 126.53524 22062 ft 482 kts 168°
2026-05-01 08:40 36.91563 126.55680 22959 ft 490 kts 168°
2026-05-01 08:40 36.88255 126.56773 23395 ft 493 kts 168°
2026-05-01 08:40 36.84923 126.57869 23730 ft 497 kts 169°
2026-05-01 08:41 36.81568 126.58971 24058 ft 501 kts 169°
2026-05-01 08:41 36.78183 126.60086 24381 ft 505 kts 169°
2026-05-01 08:41 36.74769 126.61209 24712 ft 508 kts 169°
2026-05-01 08:41 36.71337 126.62338 25000 ft 512 kts 169°
2026-05-01 08:42 36.67873 126.63507 25272 ft 516 kts 169°
2026-05-01 08:42 36.64393 126.64692 25574 ft 520 kts 169°
2026-05-01 08:42 36.60891 126.65870 25892 ft 522 kts 170°
2026-05-01 08:42 36.57366 126.67042 26180 ft 526 kts 170°
2026-05-01 08:43 36.53818 126.68226 26479 ft 529 kts 170°
2026-05-01 08:43 36.50248 126.69427 26766 ft 533 kts 171°
2026-05-01 08:43 36.46699 126.70617 27070 ft 536 kts 171°
2026-05-01 08:43 36.43082 126.71822 27343 ft 539 kts 171°
2026-05-01 08:44 36.39445 126.73033 27633 ft 542 kts 171°
2026-05-01 08:44 36.35783 126.74260 27950 ft 545 kts 171°
2026-05-01 08:44 36.32112 126.75504 28176 ft 549 kts 171°
2026-05-01 08:44 36.28408 126.76760 28478 ft 551 kts 171°
2026-05-01 08:45 36.24699 126.78009 28737 ft 554 kts 171°
2026-05-01 08:45 36.20962 126.79261 28969 ft 558 kts 172°
2026-05-01 08:45 36.17194 126.80423 29191 ft 554 kts 178°
2026-05-01 08:45 36.13448 126.80870 29495 ft 543 kts 188°
2026-05-01 08:46 36.09713 126.80634 29727 ft 536 kts 194°
2026-05-01 08:46 36.05972 126.80237 29988 ft 538 kts 194°
2026-05-01 08:46 36.02235 126.79824 30221 ft 540 kts 195°
2026-05-01 08:46 35.98486 126.79410 30459 ft 542 kts 195°
2026-05-01 08:47 35.94732 126.79009 30746 ft 541 kts 194°
2026-05-01 08:47 35.90973 126.78609 30970 ft 542 kts 194°
2026-05-01 08:47 35.87206 126.78197 31176 ft 543 kts 195°
2026-05-01 08:47 35.83442 126.77785 31451 ft 543 kts 195°
2026-05-01 08:48 35.79677 126.77380 31764 ft 542 kts 195°
2026-05-01 08:48 35.75917 126.76976 32089 ft 540 kts 195°
2026-05-01 08:48 35.72227 126.76578 32437 ft 539 kts 195°
2026-05-01 08:48 35.68498 126.76172 32731 ft 538 kts 195°
2026-05-01 08:49 35.64766 126.75769 33027 ft 538 kts 195°
2026-05-01 08:49 35.61041 126.75369 33337 ft 537 kts 195°
2026-05-01 08:49 35.57322 126.74969 33620 ft 536 kts 195°
2026-05-01 08:49 35.53621 126.74572 33997 ft 533 kts 195°
2026-05-01 08:50 35.49923 126.74173 34217 ft 534 kts 195°
2026-05-01 08:50 35.46222 126.73774 34449 ft 534 kts 195°
2026-05-01 08:50 35.42523 126.73380 34696 ft 534 kts 195°
2026-05-01 08:50 35.38810 126.72984 34906 ft 534 kts 195°
2026-05-01 08:51 35.35108 126.72587 35112 ft 535 kts 195°
2026-05-01 08:51 35.31398 126.72190 35318 ft 535 kts 195°
2026-05-01 08:51 35.27687 126.71794 35513 ft 535 kts 195°
2026-05-01 08:51 35.23970 126.71398 35694 ft 536 kts 195°
2026-05-01 08:52 35.20248 126.71002 35891 ft 536 kts 195°
2026-05-01 08:52 35.16528 126.70606 36036 ft 537 kts 195°
2026-05-01 08:52 35.12796 126.70209 36231 ft 538 kts 195°
2026-05-01 08:52 35.09071 126.69814 36409 ft 538 kts 195°
2026-05-01 08:53 35.05340 126.69418 36609 ft 538 kts 195°
2026-05-01 08:53 35.01651 126.69025 36782 ft 539 kts 195°
2026-05-01 08:53 34.97914 126.68628 36973 ft 539 kts 195°
2026-05-01 08:53 34.94166 126.68233 37185 ft 539 kts 195°
2026-05-01 08:54 34.90427 126.67838 37374 ft 539 kts 195°
2026-05-01 08:54 34.86689 126.67441 37557 ft 540 kts 195°
2026-05-01 08:54 34.82948 126.67046 37802 ft 538 kts 196°
2026-05-01 08:54 34.79213 126.66653 37912 ft 540 kts 196°
2026-05-01 08:55 34.71708 126.65862 37926 ft 538 kts 195°
2026-05-01 08:55 34.64274 126.65082 37935 ft 535 kts 196°
2026-05-01 08:56 34.56894 126.64302 37933 ft 535 kts 195°
2026-05-01 08:56 34.49467 126.63528 37940 ft 536 kts 195°
2026-05-01 08:57 34.42038 126.62748 37953 ft 535 kts 195°
2026-05-01 08:57 34.34604 126.61972 37963 ft 537 kts 195°
2026-05-01 08:58 34.27151 126.61196 37965 ft 537 kts 195°
2026-05-01 08:58 34.19747 126.60424 37942 ft 538 kts 195°
2026-05-01 08:59 34.12284 126.59646 37972 ft 537 kts 195°
2026-05-01 08:59 34.04829 126.58871 37979 ft 538 kts 195°
2026-05-01 09:00 33.97370 126.58096 37993 ft 537 kts 195°
2026-05-01 09:00 33.89922 126.57324 37988 ft 537 kts 195°
2026-05-01 09:01 33.82629 126.56011 37999 ft 517 kts 209°
2026-05-01 09:01 33.75968 126.53194 37996 ft 510 kts 211°
2026-05-01 09:02 33.69297 126.50289 38022 ft 510 kts 211°
2026-05-01 09:02 33.62622 126.47406 38026 ft 510 kts 211°
2026-05-01 09:03 33.55947 126.44519 38023 ft 508 kts 211°
2026-05-01 09:03 33.49295 126.41649 38020 ft 507 kts 211°
2026-05-01 09:04 33.42655 126.38788 37975 ft 507 kts 211°
2026-05-01 09:04 33.36017 126.35934 37997 ft 507 kts 211°
2026-05-01 09:05 33.29370 126.33080 38010 ft 507 kts 211°
2026-05-01 09:05 33.22760 126.30248 37994 ft 506 kts 211°
2026-05-01 09:06 33.16151 126.27421 38013 ft 503 kts 211°
2026-05-01 09:06 33.09542 126.24594 38007 ft 504 kts 211°
2026-05-01 09:07 33.02912 126.21769 38018 ft 505 kts 211°
2026-05-01 09:07 32.96298 126.18941 38024 ft 505 kts 211°
2026-05-01 09:08 32.89680 126.16090 38023 ft 505 kts 211°
2026-05-01 09:08 32.83105 126.13280 38017 ft 503 kts 211°
2026-05-01 09:09 32.77603 126.10923 38015 ft 501 kts 211°
2026-05-01 09:09 32.71048 126.08120 38016 ft 501 kts 211°
2026-05-01 09:10 32.63433 126.04873 38027 ft 500 kts 210°
2026-05-01 09:10 32.56887 126.02084 38027 ft 499 kts 210°
2026-05-01 09:11 32.51414 125.99757 38029 ft 498 kts 210°
2026-05-01 09:11 32.44885 125.96985 38032 ft 498 kts 210°
2026-05-01 09:12 32.38330 125.94208 38036 ft 501 kts 210°
2026-05-01 09:12 32.31753 125.91429 38049 ft 502 kts 210°
2026-05-01 09:13 32.25225 125.88672 38038 ft 501 kts 210°
2026-05-01 09:13 32.18665 125.85907 38041 ft 501 kts 210°
2026-05-01 09:14 32.12083 125.83135 38041 ft 500 kts 210°
2026-05-01 09:14 32.08957 125.81488 38038 ft 486 kts 220°
2026-05-01 09:14 32.06137 125.79372 38057 ft 475 kts 227°
2026-05-01 09:15 32.01560 125.74070 38067 ft 456 kts 243°
2026-05-01 09:15 31.98459 125.67728 38062 ft 440 kts 257°
2026-05-01 09:16 31.96727 125.60898 38066 ft 434 kts 262°
2026-05-01 09:17 31.94414 125.50551 38048 ft 437 kts 262°
2026-05-01 09:17 31.92076 125.40139 38050 ft 438 kts 262°
2026-05-01 09:18 31.89750 125.29776 38045 ft 435 kts 262°
2026-05-01 09:19 31.87428 125.19495 38047 ft 437 kts 261°
2026-05-01 09:20 31.85069 125.09094 38051 ft 440 kts 261°
2026-05-01 09:21 31.81938 124.95170 38044 ft 439 kts 262°
2026-05-01 09:21 31.79694 124.84719 38042 ft 440 kts 261°
2026-05-01 09:22 31.76675 124.70834 38026 ft 440 kts 261°
2026-05-01 09:23 31.74386 124.60362 38056 ft 442 kts 261°
2026-05-01 09:24 31.72089 124.49905 38052 ft 440 kts 261°
2026-05-01 09:25 31.69029 124.36038 38048 ft 437 kts 261°
2026-05-01 09:26 31.66725 124.25641 38059 ft 440 kts 260°
2026-05-01 09:26 31.64394 124.15171 38060 ft 441 kts 260°
2026-05-01 09:27 31.62068 124.04764 38057 ft 439 kts 260°
2026-05-01 09:28 31.60515 123.97827 38058 ft 440 kts 260°
2026-05-01 09:28 31.59011 123.90861 38069 ft 441 kts 260°
2026-05-01 09:29 31.56720 123.80438 38067 ft 441 kts 260°
2026-05-01 09:30 31.54427 123.70006 38066 ft 439 kts 260°
2026-05-01 09:30 31.52135 123.59628 38053 ft 438 kts 259°
2026-05-01 09:31 31.50599 123.52699 38053 ft 439 kts 259°
2026-05-01 09:32 31.48546 123.42297 38068 ft 439 kts 261°
2026-05-01 09:32 31.46542 123.31762 38060 ft 442 kts 261°
2026-05-01 09:33 31.45201 123.24739 38054 ft 440 kts 261°
2026-05-01 09:34 31.43198 123.14269 38047 ft 438 kts 261°
2026-05-01 09:34 31.41200 123.03883 38044 ft 438 kts 261°
2026-05-01 09:35 31.39180 122.93434 38048 ft 439 kts 261°
2026-05-01 09:36 31.37827 122.86456 38055 ft 441 kts 261°
2026-05-01 09:36 31.36462 122.79441 38061 ft 442 kts 261°
2026-05-01 09:37 31.35112 122.72430 38051 ft 442 kts 261°
2026-05-01 09:37 31.33119 122.61950 38053 ft 441 kts 261°
2026-05-01 09:38 31.31105 122.51434 38056 ft 441 kts 261°
2026-05-01 09:39 31.29092 122.40959 38030 ft 440 kts 261°
2026-05-01 09:39 31.27788 122.33948 38040 ft 443 kts 261°
2026-05-01 09:40 31.25795 122.23439 38043 ft 443 kts 261°
2026-05-01 09:41 31.24465 122.16412 38040 ft 442 kts 261°
2026-05-01 09:41 31.22462 122.05901 38025 ft 441 kts 261°
2026-05-01 09:42 31.21119 121.98873 38035 ft 443 kts 261°
2026-05-01 09:43 31.18410 121.84775 38020 ft 445 kts 261°
2026-05-01 09:43 31.17105 121.77738 38028 ft 444 kts 266°
2026-05-01 09:44 31.15939 121.67032 38026 ft 443 kts 266°
2026-05-01 09:45 31.15170 121.59888 38022 ft 444 kts 266°
2026-05-01 09:45 31.13994 121.49191 37999 ft 441 kts 266°
2026-05-01 09:46 31.13215 121.42112 37996 ft 438 kts 266°
2026-05-01 09:46 31.12411 121.35048 37993 ft 441 kts 263°
2026-05-01 09:47 31.10767 121.28152 37994 ft 446 kts 258°
2026-05-01 09:47 31.08957 121.21208 38000 ft 447 kts 258°
2026-05-01 09:48 31.07155 121.14274 37999 ft 444 kts 259°
2026-05-01 09:48 31.05470 121.07333 38002 ft 445 kts 258°
2026-05-01 09:49 31.03766 121.00382 38000 ft 446 kts 259°
2026-05-01 09:49 31.02065 120.93414 37994 ft 447 kts 259°
2026-05-01 09:50 31.00359 120.86481 37986 ft 444 kts 259°
2026-05-01 09:50 30.98659 120.79555 37983 ft 445 kts 259°
2026-05-01 09:51 30.96956 120.72657 37985 ft 446 kts 259°
2026-05-01 09:51 30.95257 120.65694 37989 ft 446 kts 259°
2026-05-01 09:52 30.93547 120.58741 37992 ft 446 kts 259°
2026-05-01 09:52 30.91837 120.51789 37991 ft 446 kts 258°
2026-05-01 09:53 30.89301 120.45129 37994 ft 457 kts 243°
2026-05-01 09:53 30.85132 120.39433 38004 ft 472 kts 227°
2026-05-01 09:54 30.79794 120.34860 37996 ft 476 kts 223°
2026-05-01 09:54 30.74388 120.30418 37994 ft 475 kts 223°
2026-05-01 09:55 30.69027 120.26013 37993 ft 475 kts 223°
2026-05-01 09:55 30.63620 120.21578 37980 ft 476 kts 223°
2026-05-01 09:56 30.58193 120.17133 37986 ft 478 kts 223°
2026-05-01 09:56 30.52754 120.12686 37987 ft 478 kts 223°
2026-05-01 09:57 30.47315 120.08245 37990 ft 476 kts 223°
2026-05-01 09:57 30.42763 120.04650 38002 ft 480 kts 216°
2026-05-01 09:58 30.36958 120.00785 37990 ft 481 kts 217°
2026-05-01 09:58 30.31148 119.96908 37991 ft 482 kts 217°
2026-05-01 09:59 30.25328 119.93042 37991 ft 482 kts 217°
2026-05-01 09:59 30.19508 119.89170 37989 ft 482 kts 217°
2026-05-01 10:00 30.13691 119.85314 37986 ft 481 kts 217°
2026-05-01 10:00 30.07919 119.81487 37987 ft 481 kts 217°
2026-05-01 10:01 30.02117 119.77635 37980 ft 480 kts 217°
2026-05-01 10:01 29.96360 119.73731 37980 ft 481 kts 217°
2026-05-01 10:02 29.90553 119.69848 37985 ft 482 kts 217°
2026-05-01 10:02 29.84799 119.65910 37990 ft 475 kts 222°
2026-05-01 10:03 29.79329 119.61614 37977 ft 478 kts 221°
2026-05-01 10:03 29.73837 119.57331 37974 ft 478 kts 221°
2026-05-01 10:04 29.68347 119.53038 37983 ft 478 kts 221°
2026-05-01 10:04 29.62985 119.48572 37995 ft 469 kts 230°
2026-05-01 10:05 29.58555 119.43121 37985 ft 469 kts 234°
2026-05-01 10:05 29.54179 119.37551 37985 ft 470 kts 234°
2026-05-01 10:06 29.49802 119.31976 37986 ft 469 kts 234°
2026-05-01 10:06 29.45464 119.26459 37973 ft 467 kts 234°
2026-05-01 10:07 29.41108 119.20925 37972 ft 468 kts 234°
2026-05-01 10:07 29.36722 119.15362 37978 ft 471 kts 234°
2026-05-01 10:08 29.30129 119.07031 37962 ft 469 kts 234°
2026-05-01 10:09 29.25746 119.01502 37964 ft 468 kts 234°
2026-05-01 10:09 29.21355 118.95973 37968 ft 470 kts 234°
2026-05-01 10:10 29.16966 118.90461 37980 ft 472 kts 234°
2026-05-01 10:10 29.10340 118.82149 37981 ft 471 kts 234°
2026-05-01 10:11 29.05918 118.76613 37974 ft 471 kts 234°
2026-05-01 10:11 29.01509 118.71099 37964 ft 471 kts 234°
2026-05-01 10:12 28.97073 118.65560 37968 ft 472 kts 234°
2026-05-01 10:13 28.90449 118.57304 37962 ft 469 kts 233°
2026-05-01 10:13 28.86066 118.51848 37961 ft 469 kts 233°
2026-05-01 10:14 28.79422 118.43592 37958 ft 473 kts 233°
2026-05-01 10:14 28.74963 118.38065 37954 ft 473 kts 233°
2026-05-01 10:15 28.70502 118.32537 37960 ft 474 kts 233°
2026-05-01 10:15 28.66039 118.27017 37957 ft 473 kts 233°
2026-05-01 10:16 28.61600 118.21533 37945 ft 474 kts 233°
2026-05-01 10:17 28.54868 118.13234 37945 ft 474 kts 233°
2026-05-01 10:17 28.48167 118.04985 37951 ft 472 kts 233°
2026-05-01 10:18 28.41501 117.96804 37950 ft 472 kts 231°
2026-05-01 10:19 28.36935 117.91416 37956 ft 473 kts 232°
2026-05-01 10:19 28.32378 117.86014 37964 ft 474 kts 232°
2026-05-01 10:20 28.25513 117.77926 37966 ft 474 kts 232°
2026-05-01 10:20 28.20936 117.72544 37967 ft 474 kts 232°
2026-05-01 10:21 28.14102 117.64510 37974 ft 474 kts 232°
2026-05-01 10:22 28.07225 117.56446 37969 ft 474 kts 232°
2026-05-01 10:23 28.00354 117.48401 37976 ft 474 kts 232°
2026-05-01 10:23 27.93444 117.40325 37977 ft 474 kts 232°
2026-05-01 10:24 27.84315 117.29675 37974 ft 474 kts 232°
2026-05-01 10:25 27.75103 117.18959 37970 ft 477 kts 231°
2026-05-01 10:26 27.70483 117.13599 37974 ft 474 kts 231°
2026-05-01 10:27 27.61318 117.02977 37961 ft 472 kts 231°
2026-05-01 10:28 27.54439 116.95022 37960 ft 477 kts 231°
2026-05-01 10:28 27.47521 116.86969 37965 ft 476 kts 232°
2026-05-01 10:29 27.40667 116.78953 37945 ft 471 kts 231°
2026-05-01 10:30 27.31552 116.68309 37945 ft 474 kts 231°
2026-05-01 10:31 27.22421 116.57679 37949 ft 474 kts 231°
2026-05-01 10:32 27.15694 116.49603 37940 ft 471 kts 232°
2026-05-01 10:33 27.06783 116.38819 37942 ft 471 kts 232°
2026-05-01 10:34 27.00107 116.30761 37945 ft 472 kts 232°
2026-05-01 10:34 26.95631 116.25369 37952 ft 472 kts 232°
2026-05-01 10:35 26.88929 116.17268 37949 ft 472 kts 232°
2026-05-01 10:35 26.84488 116.11836 37953 ft 473 kts 232°
2026-05-01 10:36 26.77804 116.03721 37950 ft 471 kts 232°
2026-05-01 10:37 26.73398 115.98371 37944 ft 470 kts 232°
2026-05-01 10:37 26.66725 115.90283 37966 ft 472 kts 232°
2026-05-01 10:38 26.62258 115.84881 37953 ft 473 kts 232°
2026-05-01 10:38 26.57796 115.79487 37960 ft 472 kts 232°
2026-05-01 10:39 26.53339 115.74108 37955 ft 472 kts 232°
2026-05-01 10:39 26.48880 115.68731 37946 ft 472 kts 232°
2026-05-01 10:40 26.44426 115.63369 37949 ft 474 kts 232°
2026-05-01 10:40 26.39956 115.57995 37950 ft 471 kts 232°
2026-05-01 10:41 26.35491 115.52629 37950 ft 472 kts 232°
2026-05-01 10:42 26.28772 115.44573 37949 ft 473 kts 232°
2026-05-01 10:42 26.24302 115.39219 37941 ft 475 kts 232°
2026-05-01 10:43 26.19799 115.33835 37942 ft 474 kts 232°
2026-05-01 10:43 26.15310 115.28473 37944 ft 472 kts 232°
2026-05-01 10:44 26.11588 115.24030 37938 ft 471 kts 232°
2026-05-01 10:44 26.06356 115.17794 37938 ft 472 kts 232°
2026-05-01 10:45 26.02632 115.13361 37941 ft 472 kts 232°
2026-05-01 10:45 25.98143 115.08024 37946 ft 471 kts 232°
2026-05-01 10:46 25.93663 115.02704 37940 ft 471 kts 232°
2026-05-01 10:46 25.89214 114.97426 37938 ft 469 kts 231°
2026-05-01 10:47 25.84764 114.92154 37940 ft 468 kts 231°
2026-05-01 10:47 25.80197 114.86985 37960 ft 472 kts 223°
2026-05-01 10:48 25.74954 114.82499 37957 ft 478 kts 222°
2026-05-01 10:48 25.69708 114.78061 37956 ft 476 kts 222°
2026-05-01 10:49 25.64456 114.73602 37952 ft 474 kts 222°
2026-05-01 10:49 25.59211 114.69165 37953 ft 474 kts 222°
2026-05-01 10:50 25.53954 114.64720 37938 ft 476 kts 222°
2026-05-01 10:50 25.48674 114.60262 37941 ft 478 kts 222°
2026-05-01 10:51 25.43416 114.55826 37949 ft 477 kts 222°
2026-05-01 10:51 25.38136 114.51378 37950 ft 476 kts 222°
2026-05-01 10:52 25.32872 114.46946 37951 ft 476 kts 222°
2026-05-01 10:52 25.27590 114.42504 37955 ft 479 kts 221°
2026-05-01 10:53 25.22288 114.38053 37956 ft 479 kts 221°
2026-05-01 10:53 25.17015 114.33631 37961 ft 473 kts 221°
2026-05-01 10:54 25.11723 114.29304 37967 ft 476 kts 215°
2026-05-01 10:54 25.05517 114.26481 37990 ft 491 kts 197°
2026-05-01 10:55 24.98782 114.24984 37976 ft 495 kts 196°
2026-05-01 10:55 24.92030 114.23530 37973 ft 493 kts 196°
2026-05-01 10:56 24.85346 114.22065 37974 ft 492 kts 196°
2026-05-01 10:56 24.78629 114.20612 37968 ft 492 kts 196°
2026-05-01 10:57 24.71888 114.19144 37966 ft 494 kts 196°
2026-05-01 10:57 24.65128 114.17681 37974 ft 494 kts 196°
2026-05-01 10:58 24.58409 114.16224 37976 ft 494 kts 196°
2026-05-01 10:58 24.51669 114.14766 37960 ft 493 kts 196°
2026-05-01 10:59 24.44924 114.13308 37972 ft 495 kts 195°
2026-05-01 10:59 24.38159 114.11845 37973 ft 495 kts 197°
2026-05-01 11:00 24.31880 114.09107 37994 ft 482 kts 216°
2026-05-01 11:00 24.26204 114.05287 37990 ft 480 kts 217°
2026-05-01 11:01 24.20559 114.01392 37973 ft 480 kts 216°
2026-05-01 11:01 24.14910 113.97465 37980 ft 481 kts 217°
2026-05-01 11:02 24.09249 113.93541 37981 ft 481 kts 216°
2026-05-01 11:02 24.03633 113.89639 37987 ft 481 kts 217°
2026-05-01 11:03 23.97985 113.85719 37965 ft 481 kts 216°
2026-05-01 11:03 23.92317 113.81792 37964 ft 482 kts 216°
2026-05-01 11:04 23.86650 113.77868 37965 ft 482 kts 216°
2026-05-01 11:04 23.80984 113.73949 37962 ft 480 kts 216°
2026-05-01 11:05 23.75365 113.70068 37958 ft 476 kts 216°
2026-05-01 11:05 23.69756 113.66195 37963 ft 479 kts 216°
2026-05-01 11:06 23.64085 113.62286 37968 ft 482 kts 216°
2026-05-01 11:06 23.58476 113.58423 37963 ft 481 kts 216°
2026-05-01 11:07 23.50029 113.52466 37959 ft 480 kts 216°
2026-05-01 11:07 23.44402 113.48534 37952 ft 480 kts 216°
2026-05-01 11:08 23.38800 113.44595 37953 ft 479 kts 216°
2026-05-01 11:09 23.30410 113.38723 37942 ft 476 kts 216°
2026-05-01 11:09 23.24822 113.34810 37943 ft 477 kts 216°
2026-05-01 11:10 23.16456 113.28965 37950 ft 480 kts 216°
2026-05-01 11:10 23.10857 113.24987 37964 ft 478 kts 222°
2026-05-01 11:11 23.06370 113.19798 37968 ft 469 kts 240°
2026-05-01 11:11 23.03701 113.13407 37965 ft 464 kts 258°
2026-05-01 11:12 23.03063 113.06474 37970 ft 462 kts 275°
2026-05-01 11:12 23.03526 112.99523 37958 ft 461 kts 274°
2026-05-01 11:13 23.04022 112.92583 37954 ft 461 kts 274°
2026-05-01 11:13 23.04495 112.85637 37955 ft 461 kts 274°
2026-05-01 11:14 23.04975 112.78692 37959 ft 461 kts 274°
2026-05-01 11:14 23.05447 112.71751 37956 ft 459 kts 274°
2026-05-01 11:15 23.05916 112.64835 37957 ft 459 kts 274°
2026-05-01 11:15 23.06379 112.57952 37956 ft 459 kts 274°
2026-05-01 11:16 23.06842 112.51024 37949 ft 459 kts 274°
2026-05-01 11:16 23.06527 112.44113 37950 ft 460 kts 264°
2026-05-01 11:17 23.05809 112.37245 37960 ft 456 kts 264°
2026-05-01 11:17 23.05091 112.30394 37945 ft 457 kts 264°
2026-05-01 11:18 23.04367 112.23508 37949 ft 460 kts 264°
2026-05-01 11:18 23.03636 112.16600 37948 ft 460 kts 264°
2026-05-01 11:19 23.02909 112.09744 37948 ft 459 kts 264°
2026-05-01 11:19 23.02178 112.02891 37945 ft 456 kts 264°
2026-05-01 11:20 23.01445 111.96043 37945 ft 457 kts 264°
2026-05-01 11:20 23.00707 111.89179 37939 ft 458 kts 264°
2026-05-01 11:21 22.99966 111.82312 37947 ft 459 kts 264°
2026-05-01 11:21 22.99220 111.75425 37943 ft 457 kts 264°
2026-05-01 11:22 22.98477 111.68603 37938 ft 454 kts 264°
2026-05-01 11:22 22.97734 111.61791 37938 ft 455 kts 263°
2026-05-01 11:23 22.96985 111.54993 37943 ft 456 kts 263°
2026-05-01 11:23 22.96217 111.48164 37942 ft 456 kts 263°
2026-05-01 11:24 22.95452 111.41338 37938 ft 456 kts 263°
2026-05-01 11:25 22.94294 111.31088 37943 ft 456 kts 263°
2026-05-01 11:25 22.93128 111.20811 37941 ft 457 kts 263°
2026-05-01 11:26 22.91959 111.10576 37932 ft 455 kts 263°
2026-05-01 11:27 22.91182 111.03811 37941 ft 455 kts 263°
2026-05-01 11:27 22.90396 110.96984 37940 ft 456 kts 263°
2026-05-01 11:28 22.89608 110.90169 37937 ft 456 kts 263°
2026-05-01 11:28 22.88817 110.83350 37933 ft 456 kts 263°
2026-05-01 11:29 22.87624 110.73116 37928 ft 455 kts 263°
2026-05-01 11:30 22.86428 110.62919 37935 ft 454 kts 263°
2026-05-01 11:30 22.85628 110.56124 37932 ft 454 kts 263°
2026-05-01 11:31 22.84881 110.49378 37931 ft 454 kts 263°
2026-05-01 11:31 22.84158 110.42583 37935 ft 452 kts 263°
2026-05-01 11:32 22.83530 110.36924 37935 ft 451 kts 263°
2026-05-01 11:32 22.82797 110.30154 37934 ft 453 kts 263°
2026-05-01 11:33 22.82052 110.23404 37934 ft 453 kts 263°
2026-05-01 11:33 22.81307 110.16626 37931 ft 453 kts 263°
2026-05-01 11:34 22.80555 110.09838 37938 ft 454 kts 262°
2026-05-01 11:34 22.79799 110.03037 37937 ft 454 kts 262°
2026-05-01 11:35 22.79040 109.96231 37937 ft 455 kts 262°
2026-05-01 11:35 22.78279 109.89433 37916 ft 454 kts 262°
2026-05-01 11:36 22.77515 109.82634 37917 ft 456 kts 262°
2026-05-01 11:36 22.76746 109.75819 37922 ft 454 kts 262°
2026-05-01 11:37 22.75982 109.69081 37917 ft 452 kts 262°
2026-05-01 11:37 22.75214 109.62322 37918 ft 452 kts 262°
2026-05-01 11:38 22.74441 109.55553 37919 ft 452 kts 262°
2026-05-01 11:38 22.73665 109.48780 37910 ft 453 kts 262°
2026-05-01 11:39 22.72886 109.42007 37913 ft 452 kts 262°
2026-05-01 11:39 22.72113 109.35251 37907 ft 451 kts 262°
2026-05-01 11:40 22.71337 109.28501 37910 ft 451 kts 262°
2026-05-01 11:40 22.70577 109.21748 37904 ft 451 kts 262°
2026-05-01 11:41 22.69823 109.15041 37904 ft 452 kts 262°
2026-05-01 11:41 22.69065 109.08287 37915 ft 449 kts 262°
2026-05-01 11:42 22.68344 109.01585 37912 ft 447 kts 262°
2026-05-01 11:42 22.67602 108.94896 37906 ft 448 kts 262°
2026-05-01 11:43 22.66869 108.88233 37907 ft 448 kts 262°
2026-05-01 11:43 22.66125 108.81532 37909 ft 448 kts 262°
2026-05-01 11:44 22.65008 108.71488 37912 ft 445 kts 262°
2026-05-01 11:44 22.64262 108.64823 37907 ft 445 kts 262°
2026-05-01 11:45 22.63519 108.58208 37900 ft 446 kts 262°
2026-05-01 11:45 22.62762 108.51488 37906 ft 452 kts 263°
2026-05-01 11:46 22.61998 108.44741 37910 ft 450 kts 263°
2026-05-01 11:46 22.61237 108.38037 37911 ft 446 kts 262°
2026-05-01 11:47 22.60479 108.31391 37911 ft 445 kts 262°
2026-05-01 11:47 22.59717 108.24732 37916 ft 446 kts 262°
2026-05-01 11:48 22.58949 108.18051 37915 ft 447 kts 262°
2026-05-01 11:48 22.57968 108.11461 37913 ft 447 kts 259°
2026-05-01 11:49 22.56818 108.04852 37917 ft 447 kts 259°
2026-05-01 11:49 22.55648 107.98244 37912 ft 447 kts 259°
2026-05-01 11:50 22.54482 107.91638 37905 ft 447 kts 259°
2026-05-01 11:50 22.53309 107.85020 37895 ft 447 kts 259°
2026-05-01 11:51 22.52136 107.78410 37890 ft 447 kts 259°
2026-05-01 11:51 22.50962 107.71815 37883 ft 445 kts 258°
2026-05-01 11:52 22.49809 107.65357 37878 ft 439 kts 258°
2026-05-01 11:52 22.48646 107.58862 37873 ft 441 kts 258°
2026-05-01 11:53 22.47476 107.52337 37882 ft 442 kts 258°
2026-05-01 11:53 22.46302 107.45805 37882 ft 442 kts 258°
2026-05-01 11:54 22.45125 107.39274 37870 ft 445 kts 259°
2026-05-01 11:54 22.43944 107.32736 37869 ft 441 kts 258°
2026-05-01 11:55 22.42767 107.26235 37869 ft 441 kts 258°
2026-05-01 11:55 22.41599 107.19730 37868 ft 441 kts 259°
2026-05-01 11:56 22.40433 107.13216 37876 ft 442 kts 258°
2026-05-01 11:56 22.39254 107.06678 37881 ft 443 kts 258°
2026-05-01 11:57 22.38091 107.00222 37629 ft 433 kts 258°
2026-05-01 11:57 22.37510 106.97013 36751 ft 436 kts 258°
2026-05-01 11:57 22.36927 106.93791 36123 ft 434 kts 258°
2026-05-01 11:58 22.36143 106.90652 35546 ft 431 kts 250°
2026-05-01 11:58 22.34962 106.87683 34945 ft 431 kts 243°
2026-05-01 11:58 22.31465 106.82377 33676 ft 445 kts 228°
2026-05-01 11:59 22.29256 106.80010 32979 ft 448 kts 228°
2026-05-01 11:59 22.27033 106.77632 32274 ft 451 kts 227°
2026-05-01 11:59 22.24777 106.75226 31347 ft 457 kts 227°
2026-05-01 12:00 22.20217 106.70390 29747 ft 464 kts 228°
2026-05-01 12:00 22.17908 106.67938 28930 ft 463 kts 226°
2026-05-01 12:00 22.12958 106.63547 27364 ft 456 kts 222°
2026-05-01 12:01 22.10512 106.61392 26603 ft 452 kts 222°
2026-05-01 12:01 22.08079 106.59267 25844 ft 449 kts 222°
2026-05-01 12:01 22.05682 106.57188 25108 ft 446 kts 221°
2026-05-01 12:01 22.03273 106.55091 24367 ft 443 kts 221°
2026-05-01 12:02 22.00887 106.53008 23630 ft 440 kts 221°
2026-05-01 12:02 21.98517 106.50941 22852 ft 436 kts 221°
2026-05-01 12:02 21.96186 106.48884 22142 ft 428 kts 224°
2026-05-01 12:02 21.93987 106.46759 21439 ft 422 kts 224°
2026-05-01 12:03 21.91791 106.44671 20748 ft 417 kts 223°
2026-05-01 12:03 21.89629 106.42617 20073 ft 412 kts 224°
2026-05-01 12:03 21.87501 106.40583 19392 ft 407 kts 224°
2026-05-01 12:03 21.85398 106.38570 18726 ft 403 kts 224°
2026-05-01 12:04 21.83309 106.36579 18037 ft 399 kts 223°
2026-05-01 12:04 21.81268 106.34636 17395 ft 393 kts 223°
2026-05-01 12:04 21.79211 106.32677 16742 ft 387 kts 224°
2026-05-01 12:04 21.77225 106.30784 16249 ft 379 kts 224°
2026-05-01 12:05 21.75271 106.28922 15602 ft 365 kts 223°
2026-05-01 12:05 21.72035 106.25472 15010 ft 299 kts 231°
2026-05-01 12:05 21.70661 106.23813 15007 ft 294 kts 229°
2026-05-01 12:06 21.69299 106.22195 15011 ft 290 kts 230°
2026-05-01 12:06 21.67971 106.20570 15005 ft 289 kts 230°
2026-05-01 12:06 21.66652 106.18944 15012 ft 288 kts 230°
2026-05-01 12:06 21.65323 106.17318 15006 ft 290 kts 230°
2026-05-01 12:07 21.63990 106.15694 15004 ft 290 kts 230°
2026-05-01 12:07 21.62672 106.14041 15011 ft 290 kts 236°
2026-05-01 12:07 21.61792 106.12110 14998 ft 287 kts 252°
2026-05-01 12:07 21.61491 106.09993 14475 ft 291 kts 269°
2026-05-01 12:08 21.61828 106.07844 14076 ft 294 kts 286°
2026-05-01 12:08 21.62757 106.05909 13882 ft 292 kts 301°
2026-05-01 12:08 21.64090 106.04187 13173 ft 303 kts 305°
2026-05-01 12:08 21.65458 106.02481 12766 ft 300 kts 305°
2026-05-01 12:09 21.66805 106.00787 12405 ft 295 kts 305°
2026-05-01 12:09 21.68035 105.99067 12242 ft 286 kts 292°
2026-05-01 12:09 21.68728 105.97116 12072 ft 283 kts 283°
2026-05-01 12:09 21.69316 105.95094 11874 ft 283 kts 282°
2026-05-01 12:10 21.69885 105.93064 11682 ft 283 kts 282°
2026-05-01 12:10 21.71049 105.89029 11284 ft 282 kts 283°
2026-05-01 12:10 21.71628 105.87021 11120 ft 281 kts 283°
2026-05-01 12:11 21.71925 105.82954 10767 ft 273 kts 262°
2026-05-01 12:11 21.71731 105.80928 10583 ft 272 kts 261°
2026-05-01 12:11 21.71524 105.78911 10403 ft 270 kts 262°
2026-05-01 12:12 21.71196 105.76942 10218 ft 266 kts 248°
2026-05-01 12:12 21.70324 105.75198 10058 ft 266 kts 232°
2026-05-01 12:12 21.68975 105.73845 10004 ft 266 kts 215°
2026-05-01 12:12 21.67264 105.73011 10016 ft 277 kts 197°
2026-05-01 12:13 21.65331 105.72825 9931 ft 279 kts 179°
2026-05-01 12:13 21.63482 105.73294 9639 ft 276 kts 168°
2026-05-01 12:13 21.61641 105.73903 9128 ft 275 kts 167°
2026-05-01 12:13 21.59846 105.74524 8997 ft 266 kts 167°
2026-05-01 12:14 21.58059 105.75127 8932 ft 274 kts 167°
2026-05-01 12:14 21.56246 105.75731 8987 ft 273 kts 167°
2026-05-01 12:14 21.54424 105.76340 8993 ft 274 kts 167°
2026-05-01 12:14 21.52609 105.76948 8919 ft 270 kts 167°
2026-05-01 12:15 21.50807 105.77549 8332 ft 272 kts 167°
2026-05-01 12:15 21.49003 105.78152 7895 ft 270 kts 167°
2026-05-01 12:15 21.47235 105.78743 7703 ft 264 kts 167°
2026-05-01 12:15 21.45467 105.79332 7538 ft 267 kts 167°
2026-05-01 12:16 21.43715 105.79916 7372 ft 266 kts 167°
2026-05-01 12:16 21.41904 105.80143 7195 ft 253 kts 189°
2026-05-01 12:16 21.40294 105.79657 7028 ft 237 kts 210°
2026-05-01 12:16 21.39033 105.78635 6978 ft 219 kts 229°
2026-05-01 12:17 21.38212 105.77284 6974 ft 212 kts 246°
2026-05-01 12:17 21.37857 105.75771 6979 ft 215 kts 263°
2026-05-01 12:17 21.37720 105.74170 6981 ft 215 kts 261°
2026-05-01 12:17 21.37618 105.73100 6980 ft 212 kts 262°
2026-05-01 12:18 21.37476 105.71522 6983 ft 213 kts 262°
2026-05-01 12:18 21.37335 105.69945 6854 ft 211 kts 262°
2026-05-01 12:18 21.37192 105.68365 6518 ft 213 kts 262°
2026-05-01 12:18 21.37050 105.66778 6219 ft 213 kts 262°
2026-05-01 12:19 21.36862 105.65231 5899 ft 210 kts 251°
2026-05-01 12:19 21.36020 105.64020 5603 ft 201 kts 221°
2026-05-01 12:19 21.34801 105.63326 5232 ft 197 kts 195°
2026-05-01 12:19 21.33472 105.63143 4937 ft 190 kts 186°
2026-05-01 12:20 21.32241 105.63055 4904 ft 167 kts 185°
2026-05-01 12:20 21.31088 105.62958 4558 ft 167 kts 185°
2026-05-01 12:20 21.29931 105.62852 4203 ft 166 kts 185°
2026-05-01 12:20 21.28778 105.62752 3837 ft 165 kts 182°
2026-05-01 12:21 21.27687 105.63060 3382 ft 166 kts 149°
2026-05-01 12:21 21.27009 105.64064 3079 ft 169 kts 115°
2026-05-01 12:21 21.26597 105.65233 2805 ft 171 kts 114°
2026-05-01 12:21 21.26231 105.66429 2547 ft 170 kts 112°
2026-05-01 12:22 21.25874 105.67627 2252 ft 170 kts 111°
2026-05-01 12:22 21.25535 105.68807 1988 ft 159 kts 110°
2026-05-01 12:22 21.25233 105.69871 1787 ft 144 kts 111°
2026-05-01 12:22 21.24934 105.70915 1603 ft 148 kts 111°
2026-05-01 12:23 21.24640 105.71937 1404 ft 139 kts 110°
2026-05-01 12:23 21.24346 105.72945 1238 ft 147 kts 110°
2026-05-01 12:23 21.24038 105.74001 1056 ft 146 kts 109°
2026-05-01 12:23 21.23741 105.75035 876 ft 145 kts 109°
2026-05-01 12:24 21.23448 105.76055 691 ft 143 kts 109°
2026-05-01 12:24 21.23151 105.77097 508 ft 152 kts 109°
2026-05-01 12:24 21.22843 105.78164 318 ft 146 kts 108°
2026-05-01 12:24 21.22543 105.79198 126 ft 144 kts 107°
2026-05-01 12:25 21.22277 105.80148 50 ft 109 kts 107°
2026-05-01 12:25 21.22058 105.80885 54 ft 17 kts 107°
2026-05-01 12:25 21.22045 105.80931 53 ft 3 kts 107°
2026-05-01 12:26 21.22032 105.80977 53 ft 10 kts 107°
2026-05-01 12:26 21.21953 105.81222 51 ft 24 kts 107°
2026-05-01 12:26 21.21900 105.81416 51 ft 30 kts 106°
2026-05-01 12:27 21.21842 105.81609 50 ft 24 kts 120°
2026-05-01 12:27 21.21667 105.81603 49 ft 12 kts 197°
2026-05-01 12:28 21.21498 105.81550 53 ft 14 kts 195°
2026-05-01 12:28 21.21405 105.81509 51 ft 15 kts 223°
2026-05-01 12:28 21.21427 105.81327 50 ft 14 kts 287°
2026-05-01 12:29 21.21458 105.81221 50 ft 16 kts 287°
2026-05-01 12:29 21.21493 105.81102 47 ft 17 kts 287°
2026-05-01 12:29 21.21571 105.80831 50 ft 20 kts 287°
2026-05-01 12:30 21.21646 105.80559 52 ft 17 kts 286°
2026-05-01 12:30 21.21682 105.80430 51 ft 19 kts 287°
2026-05-01 12:30 21.21721 105.80292 49 ft 20 kts 287°
2026-05-01 12:31 21.21763 105.80145 51 ft 21 kts 287°
2026-05-01 12:31 21.21798 105.80027 52 ft 15 kts 288°
2026-05-01 12:31 21.21832 105.79917 51 ft 16 kts 288°
2026-05-01 12:31 21.21866 105.79801 51 ft 16 kts 288°
2026-05-01 12:32 21.21900 105.79687 52 ft 16 kts 286°
2026-05-01 12:32 21.21871 105.79602 51 ft 5 kts 205°
2026-05-01 12:32 21.21849 105.79593 50 ft 1 kts 198°
2026-05-01 12:33 21.21841 105.79590 51 ft 2 kts 198°
2026-05-01 12:33 21.21829 105.79586 47 ft 0 kts 198°